Time,TemperatureF,DewpointF,PressureIn,WindDirection,WindDirectionDegrees,WindSpeedMPH,WindSpeedGustMPH,Humidity,HourlyPrecipIn,Conditions,Clouds,dailyrainin,SoftwareType,DateUTC
2013-01-26 00:01:00,-3.4,-9.3,30.40,WNW,291,0.0,0.0,75,0.00,,---,0.00,VWS V14.01,2013-01-26 06:01:00,
2013-01-26 00:06:00,-3.4,-9.3,30.40,WNW,291,0.0,0.0,75,0.00,,---,0.00,VWS V14.01,2013-01-26 06:06:00,
2013-01-26 00:11:00,-3.4,-9.3,30.40,WNW,291,0.0,0.0,75,0.00,,---,0.00,VWS V14.01,2013-01-26 06:11:00,
2013-01-26 00:16:00,-3.5,-9.4,30.41,WNW,291,0.0,0.0,75,0.00,,---,0.00,VWS V14.01,2013-01-26 06:16:00,
2013-01-26 00:21:00,-3.5,-9.4,30.40,WNW,291,0.0,0.0,75,0.00,,---,0.00,VWS V14.01,2013-01-26 06:21:00,
2013-01-26 00:26:00,-3.6,-9.5,30.41,WNW,291,0.0,0.0,75,0.00,,---,0.00,VWS V14.01,2013-01-26 06:26:00,
2013-01-26 00:31:00,-3.6,-9.5,30.40,WNW,291,0.0,0.0,75,0.00,,---,0.00,VWS V14.01,2013-01-26 06:31:00,
2013-01-26 00:36:00,-3.6,-9.5,30.40,WNW,291,0.0,0.0,75,0.00,,---,0.00,VWS V14.01,2013-01-26 06:36:00,
2013-01-26 00:41:00,-3.6,-9.5,30.40,WNW,291,0.0,0.0,75,0.00,,---,0.00,VWS V14.01,2013-01-26 06:41:00,
2013-01-26 00:46:00,-3.8,-9.7,30.40,WNW,291,0.0,0.0,75,0.00,,---,0.00,VWS V14.01,2013-01-26 06:46:00,
2013-01-26 00:51:00,-3.9,-9.8,30.40,WNW,291,0.0,0.0,75,0.00,,---,0.00,VWS V14.01,2013-01-26 06:51:00,
2013-01-26 00:56:00,-4.1,-10.0,30.40,WNW,291,0.0,0.0,75,0.00,,---,0.00,VWS V14.01,2013-01-26 06:56:00,
2013-01-26 01:01:00,-4.2,-10.1,30.40,WNW,291,0.0,0.0,75,0.00,,---,0.00,VWS V14.01,2013-01-26 07:01:00,
2013-01-26 01:06:00,-4.4,-10.3,30.39,WNW,291,0.0,0.0,75,0.00,,---,0.00,VWS V14.01,2013-01-26 07:06:00,
2013-01-26 01:11:00,-4.5,-10.1,30.39,WNW,291,0.0,0.0,76,0.00,,---,0.00,VWS V14.01,2013-01-26 07:11:00,
2013-01-26 01:16:00,-4.6,-10.2,30.39,WNW,291,0.0,0.0,76,0.00,,---,0.00,VWS V14.01,2013-01-26 07:16:00,
2013-01-26 01:21:00,-4.8,-10.4,30.39,WNW,291,0.0,0.0,76,0.00,,---,0.00,VWS V14.01,2013-01-26 07:21:00,
2013-01-26 01:26:00,-4.9,-10.5,30.39,WNW,291,0.0,0.0,76,0.00,,---,0.00,VWS V14.01,2013-01-26 07:26:00,
2013-01-26 01:31:00,-5.1,-10.7,30.38,WNW,291,0.0,0.0,76,0.00,,---,0.00,VWS V14.01,2013-01-26 07:31:00,
2013-01-26 01:36:00,-5.3,-10.9,30.38,WNW,291,0.0,0.0,76,0.00,,---,0.00,VWS V14.01,2013-01-26 07:36:00,
2013-01-26 01:41:00,-5.4,-11.0,30.38,WNW,291,0.0,0.0,76,0.00,,---,0.00,VWS V14.01,2013-01-26 07:41:00,
2013-01-26 01:46:00,-5.3,-10.6,30.38,WNW,291,0.0,0.0,77,0.00,,---,0.00,VWS V14.01,2013-01-26 07:46:00,
2013-01-26 01:51:00,-5.1,-10.4,30.38,WNW,291,0.0,0.0,77,0.00,,---,0.00,VWS V14.01,2013-01-26 07:51:00,
2013-01-26 01:56:00,-4.9,-10.2,30.38,WNW,291,0.0,0.0,77,0.00,,---,0.00,VWS V14.01,2013-01-26 07:56:00,
2013-01-26 02:01:00,-4.8,-10.1,30.38,WNW,291,0.0,0.0,77,0.00,,---,0.00,VWS V14.01,2013-01-26 08:01:00,
2013-01-26 02:06:00,-4.9,-10.2,30.38,WNW,291,0.0,0.0,77,0.00,,---,0.00,VWS V14.01,2013-01-26 08:06:00,
2013-01-26 02:11:00,-5.0,-10.6,30.38,WNW,291,0.0,0.0,76,0.00,,---,0.00,VWS V14.01,2013-01-26 08:11:00,
2013-01-26 02:16:00,-5.3,-10.9,30.38,WNW,291,0.0,0.0,76,0.00,,---,0.00,VWS V14.01,2013-01-26 08:16:00,
2013-01-26 02:21:00,-5.5,-11.1,30.38,WNW,291,0.0,0.0,76,0.00,,---,0.00,VWS V14.01,2013-01-26 08:21:00,
2013-01-26 02:26:00,-5.8,-11.4,30.38,WNW,291,0.0,0.0,76,0.00,,---,0.00,VWS V14.01,2013-01-26 08:26:00,
2013-01-26 02:31:00,-5.9,-11.5,30.39,WNW,291,0.0,0.0,76,0.00,,---,0.00,VWS V14.01,2013-01-26 08:31:00,
2013-01-26 02:36:00,-6.2,-11.8,30.38,WNW,291,0.0,0.0,76,0.00,,---,0.00,VWS V14.01,2013-01-26 08:36:00,
2013-01-26 02:41:00,-6.3,-11.9,30.39,WNW,291,0.0,0.0,76,0.00,,---,0.00,VWS V14.01,2013-01-26 08:41:00,
2013-01-26 02:46:00,-6.5,-12.1,30.39,WNW,291,0.0,0.0,76,0.00,,---,0.00,VWS V14.01,2013-01-26 08:46:00,
2013-01-26 02:51:00,-6.5,-12.1,30.39,WNW,291,0.0,0.0,76,0.00,,---,0.00,VWS V14.01,2013-01-26 08:51:00,
2013-01-26 02:56:00,-6.6,-12.2,30.39,WNW,291,0.0,0.0,76,0.00,,---,0.00,VWS V14.01,2013-01-26 08:56:00,
2013-01-26 03:01:00,-6.7,-12.3,30.39,WNW,291,0.0,0.0,76,0.00,,---,0.00,VWS V14.01,2013-01-26 09:01:00,
2013-01-26 03:06:00,-6.7,-12.3,30.38,WNW,291,0.0,0.0,76,0.00,,---,0.00,VWS V14.01,2013-01-26 09:06:00,
2013-01-26 03:11:00,-6.8,-12.4,30.38,WNW,291,0.0,0.0,76,0.00,,---,0.00,VWS V14.01,2013-01-26 09:11:00,
2013-01-26 03:16:00,-6.9,-12.5,30.38,WNW,291,0.0,0.0,76,0.00,,---,0.00,VWS V14.01,2013-01-26 09:16:00,
2013-01-26 03:21:00,-7.0,-12.6,30.38,WNW,291,0.0,0.0,76,0.00,,---,0.00,VWS V14.01,2013-01-26 09:21:00,
2013-01-26 03:26:00,-7.0,-12.6,30.37,WNW,291,0.0,0.0,76,0.00,,---,0.00,VWS V14.01,2013-01-26 09:26:00,
2013-01-26 03:31:00,-7.1,-12.6,30.38,WNW,291,0.0,0.0,76,0.00,,---,0.00,VWS V14.01,2013-01-26 09:31:00,
2013-01-26 03:36:00,-7.1,-12.6,30.37,WNW,291,0.0,0.0,76,0.00,,---,0.00,VWS V14.01,2013-01-26 09:36:00,
2013-01-26 03:41:00,-7.1,-12.6,30.37,WNW,291,0.0,0.0,76,0.00,,---,0.00,VWS V14.01,2013-01-26 09:41:00,
2013-01-26 03:46:00,-7.2,-12.8,30.37,WNW,291,0.0,0.0,76,0.00,,---,0.00,VWS V14.01,2013-01-26 09:46:00,
2013-01-26 03:51:00,-7.2,-12.8,30.37,WNW,291,0.0,0.0,76,0.00,,---,0.00,VWS V14.01,2013-01-26 09:51:00,
2013-01-26 03:56:00,-7.2,-12.8,30.37,WNW,291,0.0,0.0,76,0.00,,---,0.00,VWS V14.01,2013-01-26 09:56:00,
2013-01-26 04:01:00,-7.3,-12.9,30.37,WNW,291,0.0,0.0,76,0.00,,---,0.00,VWS V14.01,2013-01-26 10:01:00,
2013-01-26 04:06:00,-7.3,-12.9,30.38,WNW,291,0.0,0.0,76,0.00,,---,0.00,VWS V14.01,2013-01-26 10:06:00,
2013-01-26 04:11:00,-7.3,-12.9,30.37,WNW,291,0.0,0.0,76,0.00,,---,0.00,VWS V14.01,2013-01-26 10:11:00,
2013-01-26 04:16:00,-7.2,-12.8,30.38,WNW,291,0.0,0.0,76,0.00,,---,0.00,VWS V14.01,2013-01-26 10:16:00,
2013-01-26 04:21:00,-7.1,-12.6,30.38,WNW,291,0.0,0.0,76,0.00,,---,0.00,VWS V14.01,2013-01-26 10:21:00,
2013-01-26 04:26:00,-7.1,-12.6,30.38,WNW,291,0.0,0.0,76,0.00,,---,0.00,VWS V14.01,2013-01-26 10:26:00,
2013-01-26 04:31:00,-7.1,-12.6,30.38,WNW,291,0.0,0.0,76,0.00,,---,0.00,VWS V14.01,2013-01-26 10:31:00,
2013-01-26 04:36:00,-7.2,-12.8,30.38,WNW,291,0.0,0.0,76,0.00,,---,0.00,VWS V14.01,2013-01-26 10:36:00,
2013-01-26 04:41:00,-7.2,-12.8,30.38,WNW,291,0.0,0.0,76,0.00,,---,0.00,VWS V14.01,2013-01-26 10:41:00,
2013-01-26 04:46:00,-7.3,-12.9,30.39,WNW,291,0.0,0.0,76,0.00,,---,0.00,VWS V14.01,2013-01-26 10:46:00,
2013-01-26 04:51:00,-7.3,-12.9,30.38,WNW,291,0.0,0.0,76,0.00,,---,0.00,VWS V14.01,2013-01-26 10:51:00,
2013-01-26 04:56:00,-7.3,-12.9,30.39,WNW,291,0.0,0.0,76,0.00,,---,0.00,VWS V14.01,2013-01-26 10:56:00,
2013-01-26 05:01:00,-7.4,-12.9,30.39,WNW,291,0.0,0.0,76,0.00,,---,0.00,VWS V14.01,2013-01-26 11:01:00,
2013-01-26 05:06:00,-7.5,-13.0,30.39,WNW,291,0.0,0.0,76,0.00,,---,0.00,VWS V14.01,2013-01-26 11:06:00,
2013-01-26 05:11:00,-7.5,-13.0,30.39,WNW,291,0.0,0.0,76,0.00,,---,0.00,VWS V14.01,2013-01-26 11:11:00,
2013-01-26 05:16:00,-7.6,-13.1,30.39,WNW,291,0.0,0.0,76,0.00,,---,0.00,VWS V14.01,2013-01-26 11:16:00,
2013-01-26 05:21:00,-7.5,-13.0,30.39,WNW,291,0.0,0.0,76,0.00,,---,0.00,VWS V14.01,2013-01-26 11:21:00,
2013-01-26 05:26:00,-7.4,-12.9,30.39,WNW,291,0.0,0.0,76,0.00,,---,0.00,VWS V14.01,2013-01-26 11:26:00,
2013-01-26 05:31:00,-7.4,-12.9,30.39,WNW,291,0.0,0.0,76,0.00,,---,0.00,VWS V14.01,2013-01-26 11:31:00,
2013-01-26 05:36:00,-7.3,-12.9,30.39,WNW,291,0.0,0.0,76,0.00,,---,0.00,VWS V14.01,2013-01-26 11:36:00,
2013-01-26 05:41:00,-7.4,-12.9,30.40,WNW,291,0.0,0.0,76,0.00,,---,0.00,VWS V14.01,2013-01-26 11:41:00,
2013-01-26 05:46:00,-7.3,-12.9,30.39,WNW,291,0.0,0.0,76,0.00,,---,0.00,VWS V14.01,2013-01-26 11:46:00,
2013-01-26 05:51:00,-7.3,-12.9,30.39,WNW,291,0.0,0.0,76,0.00,,---,0.00,VWS V14.01,2013-01-26 11:51:00,
2013-01-26 05:56:00,-7.3,-12.9,30.39,WNW,291,0.0,0.0,76,0.00,,---,0.00,VWS V14.01,2013-01-26 11:56:00,
2013-01-26 06:01:00,-7.1,-12.6,30.39,WNW,291,0.0,0.0,76,0.00,,---,0.00,VWS V14.01,2013-01-26 12:01:00,
2013-01-26 06:06:00,-7.0,-12.6,30.39,WNW,291,0.0,0.0,76,0.00,,---,0.00,VWS V14.01,2013-01-26 12:06:00,
2013-01-26 06:11:00,-6.8,-12.1,30.39,WNW,291,0.0,0.0,77,0.00,,---,0.00,VWS V14.01,2013-01-26 12:11:00,
2013-01-26 06:16:00,-6.7,-12.0,30.39,WNW,291,0.0,0.0,77,0.00,,---,0.00,VWS V14.01,2013-01-26 12:16:00,
2013-01-26 06:21:00,-6.5,-11.8,30.40,WNW,291,0.0,0.0,77,0.00,,---,0.00,VWS V14.01,2013-01-26 12:21:00,
2013-01-26 06:26:00,-6.2,-11.5,30.39,WNW,291,0.0,0.0,77,0.00,,---,0.00,VWS V14.01,2013-01-26 12:26:00,
2013-01-26 06:31:00,-5.9,-11.2,30.40,WNW,291,0.0,0.0,77,0.00,,---,0.00,VWS V14.01,2013-01-26 12:31:00,
2013-01-26 06:36:00,-5.8,-11.1,30.40,WNW,291,0.0,0.0,77,0.00,,---,0.00,VWS V14.01,2013-01-26 12:36:00,
2013-01-26 06:41:00,-5.7,-11.0,30.40,WNW,291,0.0,0.0,77,0.00,,---,0.00,VWS V14.01,2013-01-26 12:41:00,
2013-01-26 06:46:00,-5.5,-10.8,30.40,WNW,291,0.0,0.0,77,0.00,,---,0.00,VWS V14.01,2013-01-26 12:46:00,
2013-01-26 06:51:00,-5.4,-10.7,30.40,WNW,291,0.0,0.0,77,0.00,,---,0.00,VWS V14.01,2013-01-26 12:51:00,
2013-01-26 06:56:00,-5.2,-10.5,30.40,WNW,291,0.0,0.0,77,0.00,,---,0.00,VWS V14.01,2013-01-26 12:56:00,
2013-01-26 07:01:00,-5.0,-10.4,30.40,WNW,291,0.0,0.0,77,0.00,,---,0.00,VWS V14.01,2013-01-26 13:01:00,
2013-01-26 07:06:00,-4.9,-10.2,30.40,WNW,291,0.0,0.0,77,0.00,,---,0.00,VWS V14.01,2013-01-26 13:06:00,
2013-01-26 07:11:00,-4.9,-10.2,30.39,WNW,291,0.0,0.0,77,0.00,,---,0.00,VWS V14.01,2013-01-26 13:11:00,
2013-01-26 07:16:00,-4.8,-10.1,30.39,WNW,291,0.0,0.0,77,0.00,,---,0.00,VWS V14.01,2013-01-26 13:16:00,
2013-01-26 07:21:00,-4.6,-10.0,30.39,WNW,291,0.0,0.0,77,0.00,,---,0.00,VWS V14.01,2013-01-26 13:21:00,
2013-01-26 07:26:00,-4.4,-9.8,30.39,WNW,291,0.0,0.0,77,0.00,,---,0.00,VWS V14.01,2013-01-26 13:26:00,
2013-01-26 07:31:00,-4.2,-9.6,30.38,WNW,291,0.0,0.0,77,0.00,,---,0.00,VWS V14.01,2013-01-26 13:31:00,
2013-01-26 07:36:00,-4.0,-9.4,30.38,WNW,291,0.0,0.0,77,0.00,,---,0.00,VWS V14.01,2013-01-26 13:36:00,
2013-01-26 07:41:00,-3.7,-9.1,30.38,WNW,291,0.0,0.0,77,0.00,,---,0.00,VWS V14.01,2013-01-26 13:41:00,
2013-01-26 07:46:00,-3.5,-8.9,30.38,WNW,291,0.0,0.0,77,0.00,,---,0.00,VWS V14.01,2013-01-26 13:46:00,
2013-01-26 07:51:00,-3.3,-8.7,30.38,WNW,291,0.0,0.0,77,0.00,,---,0.00,VWS V14.01,2013-01-26 13:51:00,
2013-01-26 07:56:00,-3.1,-8.5,30.38,WNW,291,0.0,0.0,77,0.00,,---,0.00,VWS V14.01,2013-01-26 13:56:00,
2013-01-26 08:01:00,-3.0,-8.4,30.38,WNW,291,0.0,0.0,77,0.00,,---,0.00,VWS V14.01,2013-01-26 14:01:00,
2013-01-26 08:06:00,-2.8,-8.2,30.38,WNW,291,0.0,0.0,77,0.00,,---,0.00,VWS V14.01,2013-01-26 14:06:00,
2013-01-26 08:11:00,-2.6,-8.0,30.38,WNW,291,0.0,0.0,77,0.00,,---,0.00,VWS V14.01,2013-01-26 14:11:00,
2013-01-26 08:16:00,-2.4,-7.6,30.38,WNW,291,0.0,0.0,78,0.00,,---,0.00,VWS V14.01,2013-01-26 14:16:00,
2013-01-26 08:21:00,-2.1,-7.3,30.37,WNW,291,0.0,0.0,78,0.00,,---,0.00,VWS V14.01,2013-01-26 14:21:00,
2013-01-26 08:26:00,-1.8,-7.2,30.38,ENE,67,0.0,1.0,77,0.00,,---,0.00,VWS V14.01,2013-01-26 14:26:00,
2013-01-26 08:31:00,-1.5,-6.9,30.38,East,80,0.0,1.0,77,0.00,,---,0.00,VWS V14.01,2013-01-26 14:31:00,
2013-01-26 08:36:00,-1.1,-6.6,30.38,SE,130,0.0,2.0,77,0.00,,---,0.00,VWS V14.01,2013-01-26 14:36:00,
2013-01-26 08:41:00,-0.7,-6.2,30.37,SSE,150,0.0,2.0,77,0.00,,---,0.00,VWS V14.01,2013-01-26 14:41:00,
2013-01-26 08:46:00,-0.3,-5.8,30.36,SSE,151,1.0,4.0,77,0.00,,---,0.00,VWS V14.01,2013-01-26 14:46:00,
2013-01-26 08:51:00,-0.1,-5.5,30.38,SSE,152,0.0,4.0,77,0.00,,---,0.00,VWS V14.01,2013-01-26 14:51:00,
2013-01-26 08:56:00,0.4,-5.1,30.40,ESE,113,0.0,4.0,77,0.00,,---,0.00,VWS V14.01,2013-01-26 14:56:00,
2013-01-26 09:01:00,0.7,-4.8,30.40,ESE,113,0.0,4.0,77,0.00,,---,0.00,VWS V14.01,2013-01-26 15:01:00,
2013-01-26 09:06:00,1.2,-4.6,30.40,SSW,209,0.0,4.0,76,0.00,,---,0.00,VWS V14.01,2013-01-26 15:06:00,
2013-01-26 09:11:00,1.5,-4.3,30.40,SSW,209,0.0,4.0,76,0.00,,---,0.00,VWS V14.01,2013-01-26 15:11:00,
2013-01-26 09:16:00,1.9,-3.9,30.40,SSW,209,0.0,4.0,76,0.00,,---,0.00,VWS V14.01,2013-01-26 15:16:00,
2013-01-26 09:21:00,2.2,-3.6,30.40,SSW,209,0.0,4.0,76,0.00,,---,0.00,VWS V14.01,2013-01-26 15:21:00,
2013-01-26 09:26:00,2.5,-3.6,30.41,SSE,149,0.0,4.0,75,0.00,,---,0.00,VWS V14.01,2013-01-26 15:26:00,
2013-01-26 09:31:00,2.7,-3.4,30.41,SSE,160,0.0,4.0,75,0.00,,---,0.00,VWS V14.01,2013-01-26 15:31:00,
2013-01-26 09:36:00,2.8,-3.3,30.40,SSE,160,0.0,2.0,75,0.00,,---,0.00,VWS V14.01,2013-01-26 15:36:00,
2013-01-26 09:41:00,3.2,-2.9,30.39,SSE,160,0.0,2.0,75,0.00,,---,0.00,VWS V14.01,2013-01-26 15:41:00,
2013-01-26 09:46:00,3.6,-2.5,30.39,ESE,107,0.0,2.0,75,0.00,,---,0.00,VWS V14.01,2013-01-26 15:46:00,
2013-01-26 09:51:00,3.8,-2.6,30.39,SSW,205,0.0,5.0,74,0.00,,---,0.00,VWS V14.01,2013-01-26 15:51:00,
2013-01-26 09:56:00,4.1,-2.3,30.39,South,170,0.0,5.0,74,0.00,,---,0.00,VWS V14.01,2013-01-26 15:56:00,
2013-01-26 10:01:00,4.4,-2.0,30.39,SSW,192,0.0,5.0,74,0.00,,---,0.00,VWS V14.01,2013-01-26 16:01:00,
2013-01-26 10:06:00,4.6,-2.1,30.39,ESE,109,0.0,2.0,73,0.00,,---,0.00,VWS V14.01,2013-01-26 16:06:00,
2013-01-26 10:11:00,5.0,-1.8,30.39,ESE,109,0.0,2.0,73,0.00,,---,0.00,VWS V14.01,2013-01-26 16:11:00,
2013-01-26 10:16:00,5.3,-1.5,30.39,SSE,155,1.0,2.0,73,0.00,,---,0.00,VWS V14.01,2013-01-26 16:16:00,
2013-01-26 10:21:00,5.5,-1.3,30.39,South,170,2.0,4.0,73,0.00,,---,0.00,VWS V14.01,2013-01-26 16:21:00,
2013-01-26 10:26:00,5.6,-1.5,30.39,SE,124,0.0,4.0,72,0.00,,---,0.00,VWS V14.01,2013-01-26 16:26:00,
2013-01-26 10:31:00,5.6,-1.5,30.38,SE,136,1.0,5.0,72,0.00,,---,0.00,VWS V14.01,2013-01-26 16:31:00,
2013-01-26 10:36:00,5.8,-1.3,30.38,South,180,3.0,5.0,72,0.00,,---,0.00,VWS V14.01,2013-01-26 16:36:00,
2013-01-26 10:41:00,6.0,-1.1,30.38,SE,140,0.0,9.0,72,0.00,,---,0.00,VWS V14.01,2013-01-26 16:41:00,
2013-01-26 10:46:00,6.2,-0.9,30.38,SE,142,2.0,9.0,72,0.00,,---,0.00,VWS V14.01,2013-01-26 16:46:00,
2013-01-26 10:51:00,6.5,-0.6,30.38,ESE,109,0.0,9.0,72,0.00,,---,0.00,VWS V14.01,2013-01-26 16:51:00,
2013-01-26 10:56:00,6.8,-0.3,30.39,ESE,116,0.0,9.0,72,0.00,,---,0.00,VWS V14.01,2013-01-26 16:56:00,
2013-01-26 11:01:00,7.1,-0.3,30.38,SE,141,2.0,9.0,71,0.00,,---,0.00,VWS V14.01,2013-01-26 17:01:00,
2013-01-26 11:06:00,7.2,-0.2,30.37,SSW,202,4.0,6.0,71,0.00,,---,0.00,VWS V14.01,2013-01-26 17:06:00,
2013-01-26 11:11:00,7.4,0.0,30.37,South,191,0.0,6.0,71,0.00,,---,0.00,VWS V14.01,2013-01-26 17:11:00,
2013-01-26 11:15:00,7.6,0.2,30.37,ESE,108,0.0,6.0,71,0.00,,---,0.00,VWS V14.01,2013-01-26 17:15:00,
2013-01-26 11:20:00,7.7,0.0,30.36,SSE,152,0.0,6.0,70,0.00,,---,0.00,VWS V14.01,2013-01-26 17:20:00,
2013-01-26 11:25:00,7.8,0.1,30.36,South,175,0.0,6.0,70,0.00,,---,0.00,VWS V14.01,2013-01-26 17:25:00,
2013-01-26 11:30:00,8.1,0.7,30.36,SSW,211,3.0,6.0,71,0.00,,---,0.00,VWS V14.01,2013-01-26 17:30:00,
2013-01-26 11:35:00,8.3,0.6,30.36,SE,136,1.0,5.0,70,0.00,,---,0.00,VWS V14.01,2013-01-26 17:35:00,
2013-01-26 11:40:00,8.6,0.8,30.36,SSE,164,0.0,5.0,70,0.00,,---,0.00,VWS V14.01,2013-01-26 17:40:00,
2013-01-26 11:45:00,8.9,1.1,30.37,SSE,163,0.0,5.0,70,0.00,,---,0.00,VWS V14.01,2013-01-26 17:45:00,
2013-01-26 11:50:00,8.9,0.8,30.38,South,169,0.0,7.0,69,0.00,,---,0.00,VWS V14.01,2013-01-26 17:50:00,
2013-01-26 11:55:00,9.0,0.9,30.38,SSE,168,0.0,7.0,69,0.00,,---,0.00,VWS V14.01,2013-01-26 17:55:00,
2013-01-26 12:00:00,9.2,1.1,30.37,SSE,147,1.0,7.0,69,0.00,,---,0.00,VWS V14.01,2013-01-26 18:00:00,
2013-01-26 12:05:00,9.6,1.5,30.37,SSE,164,3.0,3.0,69,0.00,,---,0.00,VWS V14.01,2013-01-26 18:05:00,
2013-01-26 12:10:00,9.8,1.4,30.36,SSE,161,2.0,4.0,68,0.00,,---,0.00,VWS V14.01,2013-01-26 18:10:00,
2013-01-26 12:16:00,9.9,1.5,30.36,SE,145,4.0,5.0,68,0.00,,---,0.00,VWS V14.01,2013-01-26 18:16:00,
2013-01-26 12:21:00,10.0,1.6,30.36,SE,128,0.0,6.0,68,0.00,,---,0.00,VWS V14.01,2013-01-26 18:21:00,
2013-01-26 12:26:00,10.2,1.4,30.36,South,181,2.0,6.0,67,0.00,,---,0.00,VWS V14.01,2013-01-26 18:26:00,
2013-01-26 12:31:00,10.3,1.5,30.35,South,186,1.0,6.0,67,0.00,,---,0.00,VWS V14.01,2013-01-26 18:31:00,
2013-01-26 12:36:00,10.4,2.0,30.35,SSE,163,0.0,6.0,68,0.00,,---,0.00,VWS V14.01,2013-01-26 18:36:00,
2013-01-26 12:41:00,10.8,2.3,30.34,SSE,159,3.0,6.0,68,0.00,,---,0.00,VWS V14.01,2013-01-26 18:41:00,
2013-01-26 12:46:00,11.1,2.6,30.34,SSE,147,0.0,6.0,68,0.00,,---,0.00,VWS V14.01,2013-01-26 18:46:00,
2013-01-26 12:51:00,11.5,3.0,30.33,SSE,157,1.0,6.0,68,0.00,,---,0.00,VWS V14.01,2013-01-26 18:51:00,
2013-01-26 12:56:00,11.5,2.4,30.32,SE,144,0.0,7.0,66,0.00,,---,0.00,VWS V14.01,2013-01-26 18:56:00,
2013-01-26 13:01:00,11.5,2.4,30.31,SE,138,3.0,7.0,66,0.00,,---,0.00,VWS V14.01,2013-01-26 19:01:00,
2013-01-26 13:06:00,11.6,2.5,30.31,SSE,161,1.0,7.0,66,0.00,,---,0.00,VWS V14.01,2013-01-26 19:06:00,
2013-01-26 13:11:00,11.9,2.7,30.30,SSW,198,2.0,7.0,66,0.00,,---,0.00,VWS V14.01,2013-01-26 19:11:00,
2013-01-26 13:16:00,12.0,2.5,30.30,SE,140,2.0,7.0,65,0.00,,---,0.00,VWS V14.01,2013-01-26 19:16:00,
2013-01-26 13:21:00,12.2,2.4,30.30,SSE,153,3.0,7.0,64,0.00,,---,0.00,VWS V14.01,2013-01-26 19:21:00,
2013-01-26 13:26:00,12.3,2.8,30.30,SSE,164,2.0,7.0,65,0.00,,---,0.00,VWS V14.01,2013-01-26 19:26:00,
2013-01-26 13:31:00,12.5,2.7,30.30,SE,140,0.0,7.0,64,0.00,,---,0.00,VWS V14.01,2013-01-26 19:31:00,
2013-01-26 13:36:00,12.8,2.9,30.31,SSE,154,3.0,9.0,64,0.00,,---,0.00,VWS V14.01,2013-01-26 19:36:00,
2013-01-26 13:41:00,13.1,3.2,30.29,SSE,163,0.0,9.0,64,0.00,,---,0.00,VWS V14.01,2013-01-26 19:41:00,
2013-01-26 13:46:00,13.4,3.5,30.29,SSE,158,5.0,9.0,64,0.00,,---,0.00,VWS V14.01,2013-01-26 19:46:00,
2013-01-26 13:51:00,13.4,3.2,30.28,SE,134,3.0,9.0,63,0.00,,---,0.00,VWS V14.01,2013-01-26 19:51:00,
2013-01-26 13:56:00,13.5,3.3,30.28,SSE,167,3.0,9.0,63,0.00,,---,0.00,VWS V14.01,2013-01-26 19:56:00,
2013-01-26 14:01:00,13.6,3.4,30.28,SE,128,1.0,9.0,63,0.00,,---,0.00,VWS V14.01,2013-01-26 20:01:00,
2013-01-26 14:06:00,13.5,3.3,30.28,SSE,150,0.0,6.0,63,0.00,,---,0.00,VWS V14.01,2013-01-26 20:06:00,
2013-01-26 14:11:00,13.5,3.6,30.27,SSE,150,0.0,9.0,64,0.00,,---,0.00,VWS V14.01,2013-01-26 20:11:00,
2013-01-26 14:16:00,13.5,3.6,30.27,SSE,167,2.0,9.0,64,0.00,,---,0.00,VWS V14.01,2013-01-26 20:16:00,
2013-01-26 14:21:00,13.5,3.6,30.27,SSE,156,0.0,9.0,64,0.00,,---,0.00,VWS V14.01,2013-01-26 20:21:00,
2013-01-26 14:26:00,13.5,3.9,30.27,SSE,161,5.0,9.0,65,0.00,,---,0.00,VWS V14.01,2013-01-26 20:26:00,
2013-01-26 14:31:00,13.5,3.9,30.27,SSE,156,2.0,9.0,65,0.00,,---,0.00,VWS V14.01,2013-01-26 20:31:00,
2013-01-26 14:36:00,13.5,3.9,30.27,East,83,0.0,4.0,65,0.00,,---,0.00,VWS V14.01,2013-01-26 20:36:00,
2013-01-26 14:41:00,13.4,3.8,30.27,SSE,148,0.0,4.0,65,0.00,,---,0.00,VWS V14.01,2013-01-26 20:41:00,
2013-01-26 14:46:00,13.4,3.8,30.28,SE,136,0.0,4.0,65,0.00,,---,0.00,VWS V14.01,2013-01-26 20:46:00,
2013-01-26 14:51:00,13.5,3.9,30.28,SE,128,1.0,5.0,65,0.00,,---,0.00,VWS V14.01,2013-01-26 20:51:00,
2013-01-26 14:55:00,13.5,3.9,30.28,ESE,118,2.0,6.0,65,0.00,,---,0.00,VWS V14.01,2013-01-26 20:55:00,
2013-01-26 15:00:00,13.6,4.0,30.28,South,184,3.0,7.0,65,0.00,,---,0.00,VWS V14.01,2013-01-26 21:00:00,
2013-01-26 15:05:00,13.7,4.5,30.27,SSE,153,4.0,7.0,66,0.00,,---,0.00,VWS V14.01,2013-01-26 21:05:00,
2013-01-26 15:10:00,13.8,4.6,30.26,SE,133,0.0,7.0,66,0.00,,---,0.00,VWS V14.01,2013-01-26 21:10:00,
2013-01-26 15:16:00,13.9,4.7,30.26,ESE,119,0.0,7.0,66,0.00,,---,0.00,VWS V14.01,2013-01-26 21:16:00,
2013-01-26 15:21:00,13.8,4.6,30.26,SE,137,0.0,7.0,66,0.00,,---,0.00,VWS V14.01,2013-01-26 21:21:00,
2013-01-26 15:26:00,13.9,4.7,30.25,SE,144,0.0,7.0,66,0.00,,---,0.00,VWS V14.01,2013-01-26 21:26:00,
2013-01-26 15:31:00,13.9,4.7,30.26,ESE,106,0.0,7.0,66,0.00,,---,0.00,VWS V14.01,2013-01-26 21:31:00,
2013-01-26 15:36:00,14.0,4.8,30.25,ESE,111,0.0,2.0,66,0.00,,---,0.00,VWS V14.01,2013-01-26 21:36:00,
2013-01-26 15:41:00,14.1,4.8,30.25,East,92,1.0,3.0,66,0.00,,---,0.00,VWS V14.01,2013-01-26 21:41:00,
2013-01-26 15:46:00,14.1,4.5,30.25,East,88,0.0,5.0,65,0.00,,---,0.00,VWS V14.01,2013-01-26 21:46:00,
2013-01-26 15:51:00,14.1,4.8,30.25,SE,130,0.0,5.0,66,0.00,,---,0.00,VWS V14.01,2013-01-26 21:51:00,
2013-01-26 15:56:00,14.2,4.9,30.25,SE,135,0.0,5.0,66,0.00,,---,0.00,VWS V14.01,2013-01-26 21:56:00,
2013-01-26 16:01:00,14.3,5.0,30.24,East,88,0.0,5.0,66,0.00,,---,0.00,VWS V14.01,2013-01-26 22:01:00,
2013-01-26 16:06:00,14.3,5.0,30.24,SE,130,0.0,4.0,66,0.00,,---,0.00,VWS V14.01,2013-01-26 22:06:00,
2013-01-26 16:11:00,14.3,5.0,30.24,SE,136,0.0,5.0,66,0.00,,---,0.00,VWS V14.01,2013-01-26 22:11:00,
2013-01-26 16:16:00,14.4,5.1,30.24,SSW,194,0.0,5.0,66,0.00,,---,0.00,VWS V14.01,2013-01-26 22:16:00,
2013-01-26 16:21:00,14.4,5.1,30.25,SE,128,0.0,5.0,66,0.00,,---,0.00,VWS V14.01,2013-01-26 22:21:00,
2013-01-26 16:26:00,14.5,5.2,30.24,SSE,150,4.0,5.0,66,0.00,,---,0.00,VWS V14.01,2013-01-26 22:26:00,
2013-01-26 16:31:00,14.6,5.3,30.24,SE,134,0.0,5.0,66,0.00,,---,0.00,VWS V14.01,2013-01-26 22:31:00,
2013-01-26 16:36:00,14.7,5.4,30.24,SE,127,0.0,2.0,66,0.00,,---,0.00,VWS V14.01,2013-01-26 22:36:00,
2013-01-26 16:41:00,14.8,5.5,30.24,ESE,121,2.0,3.0,66,0.00,,---,0.00,VWS V14.01,2013-01-26 22:41:00,
2013-01-26 16:46:00,14.9,5.6,30.24,SE,129,1.0,3.0,66,0.00,,---,0.00,VWS V14.01,2013-01-26 22:46:00,
2013-01-26 16:51:00,14.9,5.6,30.24,SSE,164,0.0,4.0,66,0.00,,---,0.00,VWS V14.01,2013-01-26 22:51:00,
2013-01-26 16:56:00,14.9,5.6,30.23,ESE,115,1.0,5.0,66,0.00,,---,0.00,VWS V14.01,2013-01-26 22:56:00,
2013-01-26 17:01:00,14.9,5.6,30.24,SE,142,0.0,5.0,66,0.00,,---,0.00,VWS V14.01,2013-01-26 23:01:00,
2013-01-26 17:06:00,14.9,5.9,30.23,SSE,163,1.0,3.0,67,0.00,,---,0.00,VWS V14.01,2013-01-26 23:06:00,
2013-01-26 17:11:00,15.0,5.7,30.23,SSE,152,1.0,4.0,66,0.00,,---,0.00,VWS V14.01,2013-01-26 23:11:00,
2013-01-26 17:16:00,15.0,5.7,30.22,SSE,152,4.0,7.0,66,0.00,,---,0.00,VWS V14.01,2013-01-26 23:16:00,
2013-01-26 17:21:00,15.0,6.0,30.23,ESE,111,2.0,8.0,67,0.00,,---,0.00,VWS V14.01,2013-01-26 23:21:00,
2013-01-26 17:26:00,15.2,5.9,30.23,SE,146,3.0,8.0,66,0.00,,---,0.00,VWS V14.01,2013-01-26 23:26:00,
2013-01-26 17:31:00,15.2,6.2,30.23,SSE,153,0.0,8.0,67,0.00,,---,0.00,VWS V14.01,2013-01-26 23:31:00,
2013-01-26 17:36:00,15.3,6.3,30.23,SSE,161,0.0,3.0,67,0.00,,---,0.00,VWS V14.01,2013-01-26 23:36:00,
2013-01-26 17:41:00,15.3,6.3,30.22,SE,137,1.0,9.0,67,0.00,,---,0.00,VWS V14.01,2013-01-26 23:41:00,
2013-01-26 17:46:00,15.4,6.4,30.21,SSE,148,2.0,9.0,67,0.00,,---,0.00,VWS V14.01,2013-01-26 23:46:00,
2013-01-26 17:51:00,15.4,6.1,30.21,SE,130,0.0,9.0,66,0.00,,---,0.00,VWS V14.01,2013-01-26 23:51:00,
2013-01-26 17:56:00,15.5,6.2,30.21,SSE,163,2.0,9.0,66,0.00,,---,0.00,VWS V14.01,2013-01-26 23:56:00,
2013-01-26 18:01:00,15.5,6.2,30.21,SE,140,0.0,9.0,66,0.00,,---,0.00,VWS V14.01,2013-01-27 00:01:00,
2013-01-26 18:06:00,15.5,6.5,30.21,SE,125,0.0,5.0,67,0.00,,---,0.00,VWS V14.01,2013-01-27 00:06:00,
2013-01-26 18:11:00,15.6,6.6,30.21,SE,140,0.0,5.0,67,0.00,,---,0.00,VWS V14.01,2013-01-27 00:11:00,
2013-01-26 18:16:00,15.6,6.6,30.21,SSE,159,0.0,5.0,67,0.00,,---,0.00,VWS V14.01,2013-01-27 00:16:00,
2013-01-26 18:20:00,15.7,6.7,30.22,SSE,152,0.0,5.0,67,0.00,,---,0.00,VWS V14.01,2013-01-27 00:20:00,
2013-01-26 18:26:00,15.8,6.8,30.22,SE,146,1.0,5.0,67,0.00,,---,0.00,VWS V14.01,2013-01-27 00:26:00,
2013-01-26 18:31:00,15.8,6.8,30.21,SSE,160,0.0,5.0,67,0.00,,---,0.00,VWS V14.01,2013-01-27 00:31:00,
2013-01-26 18:36:00,15.9,6.9,30.21,SE,126,0.0,3.0,67,0.00,,---,0.00,VWS V14.01,2013-01-27 00:36:00,
2013-01-26 18:41:00,15.9,6.9,30.20,SE,126,0.0,3.0,67,0.00,,---,0.00,VWS V14.01,2013-01-27 00:41:00,
2013-01-26 18:46:00,15.9,6.9,30.20,SE,126,0.0,3.0,67,0.00,,---,0.00,VWS V14.01,2013-01-27 00:46:00,
2013-01-26 18:51:00,16.0,7.0,30.20,SE,126,0.0,3.0,67,0.00,,---,0.00,VWS V14.01,2013-01-27 00:51:00,
2013-01-26 18:56:00,16.0,7.0,30.20,SE,126,0.0,3.0,67,0.00,,---,0.00,VWS V14.01,2013-01-27 00:56:00,
2013-01-26 19:01:00,16.0,7.0,30.20,SE,126,0.0,3.0,67,0.00,,---,0.00,VWS V14.01,2013-01-27 01:01:00,
2013-01-26 19:06:00,16.1,7.1,30.22,SE,126,0.0,1.0,67,0.00,,---,0.00,VWS V14.01,2013-01-27 01:06:00,
2013-01-26 19:11:00,16.1,7.4,30.22,SE,126,0.0,1.0,68,0.00,,---,0.00,VWS V14.01,2013-01-27 01:11:00,
2013-01-26 19:16:00,16.2,7.5,30.22,SE,126,0.0,1.0,68,0.00,,---,0.00,VWS V14.01,2013-01-27 01:16:00,
2013-01-26 19:20:00,16.2,7.5,30.22,SE,126,0.0,1.0,68,0.00,,---,0.00,VWS V14.01,2013-01-27 01:20:00,
2013-01-26 19:26:00,16.3,7.6,30.22,SE,126,0.0,1.0,68,0.00,,---,0.00,VWS V14.01,2013-01-27 01:26:00,
2013-01-26 19:30:00,16.3,7.6,30.21,SE,126,0.0,1.0,68,0.00,,---,0.00,VWS V14.01,2013-01-27 01:30:00,
2013-01-26 19:36:00,16.3,7.6,30.21,SE,126,0.0,0.0,68,0.00,,---,0.00,VWS V14.01,2013-01-27 01:36:00,
2013-01-26 19:40:00,16.3,7.6,30.22,SE,126,0.0,0.0,68,0.00,,---,0.00,VWS V14.01,2013-01-27 01:40:00,
2013-01-26 19:45:00,16.3,7.6,30.21,SE,126,0.0,0.0,68,0.00,,---,0.00,VWS V14.01,2013-01-27 01:45:00,
2013-01-26 19:50:00,16.4,7.7,30.21,SE,126,0.0,1.0,68,0.00,,---,0.00,VWS V14.01,2013-01-27 01:50:00,
2013-01-26 19:55:00,16.4,8.0,30.21,SE,126,0.0,1.0,69,0.00,,---,0.00,VWS V14.01,2013-01-27 01:55:00,
2013-01-26 20:00:00,16.4,8.0,30.21,SE,126,0.0,1.0,69,0.00,,---,0.00,VWS V14.01,2013-01-27 02:00:00,
2013-01-26 20:05:00,16.4,8.0,30.21,SE,126,0.0,0.0,69,0.00,,---,0.00,VWS V14.01,2013-01-27 02:05:00,
2013-01-26 20:10:00,16.4,8.0,30.21,SE,126,0.0,0.0,69,0.00,,---,0.00,VWS V14.01,2013-01-27 02:10:00,
2013-01-26 20:16:00,16.5,8.4,30.20,SE,126,0.0,0.0,70,0.00,,---,0.00,VWS V14.01,2013-01-27 02:16:00,
2013-01-26 20:21:00,16.5,8.1,30.21,SE,126,0.0,0.0,69,0.00,,---,0.00,VWS V14.01,2013-01-27 02:21:00,
2013-01-26 20:26:00,16.5,8.1,30.21,SE,126,0.0,0.0,69,0.00,,---,0.00,VWS V14.01,2013-01-27 02:26:00,
2013-01-26 20:30:00,16.5,8.1,30.21,SE,126,0.0,0.0,69,0.00,,---,0.00,VWS V14.01,2013-01-27 02:30:00,
2013-01-26 20:35:00,16.5,8.4,30.20,SE,126,0.0,0.0,70,0.00,,---,0.00,VWS V14.01,2013-01-27 02:35:00,
2013-01-26 20:40:00,16.6,8.5,30.21,SE,126,0.0,0.0,70,0.00,,---,0.00,VWS V14.01,2013-01-27 02:40:00,
2013-01-26 20:45:00,16.6,8.5,30.21,SE,126,0.0,0.0,70,0.00,,---,0.00,VWS V14.01,2013-01-27 02:45:00,
2013-01-26 20:50:00,16.6,8.2,30.21,SE,126,0.0,1.0,69,0.00,,---,0.00,VWS V14.01,2013-01-27 02:50:00,
2013-01-26 20:55:00,16.6,8.5,30.21,SE,126,0.0,1.0,70,0.00,,---,0.00,VWS V14.01,2013-01-27 02:55:00,
2013-01-26 21:00:00,16.7,8.6,30.20,SE,126,0.0,1.0,70,0.00,,---,0.00,VWS V14.01,2013-01-27 03:00:00,
2013-01-26 21:05:00,16.7,8.6,30.20,SE,126,0.0,0.0,70,0.00,,---,0.00,VWS V14.01,2013-01-27 03:05:00,
2013-01-26 21:10:00,16.7,8.6,30.20,SE,126,0.0,1.0,70,0.00,,---,0.00,VWS V14.01,2013-01-27 03:10:00,
2013-01-26 21:15:00,16.7,8.6,30.20,SE,126,0.0,1.0,70,0.00,,---,0.00,VWS V14.01,2013-01-27 03:15:00,
2013-01-26 21:20:00,16.7,8.6,30.20,SE,126,0.0,1.0,70,0.00,,---,0.00,VWS V14.01,2013-01-27 03:20:00,
2013-01-26 21:25:00,16.7,8.6,30.19,SE,126,0.0,1.0,70,0.00,,---,0.00,VWS V14.01,2013-01-27 03:25:00,
2013-01-26 21:30:00,16.7,8.6,30.19,SE,126,0.0,1.0,70,0.00,,---,0.00,VWS V14.01,2013-01-27 03:30:00,
2013-01-26 21:35:00,16.7,8.6,30.19,SE,126,0.0,1.0,70,0.00,,---,0.00,VWS V14.01,2013-01-27 03:35:00,
2013-01-26 21:40:00,16.7,8.6,30.19,SE,126,0.0,1.0,70,0.00,,---,0.00,VWS V14.01,2013-01-27 03:40:00,
2013-01-26 21:45:00,16.7,8.6,30.19,SE,126,0.0,1.0,70,0.00,,---,0.00,VWS V14.01,2013-01-27 03:45:00,
2013-01-26 21:50:00,16.7,8.6,30.19,SE,126,0.0,1.0,70,0.00,,---,0.00,VWS V14.01,2013-01-27 03:50:00,
2013-01-26 21:55:00,16.7,8.6,30.18,SE,126,0.0,1.0,70,0.00,,---,0.00,VWS V14.01,2013-01-27 03:55:00,
2013-01-26 22:00:00,16.7,8.6,30.18,SE,126,0.0,1.0,70,0.00,,---,0.00,VWS V14.01,2013-01-27 04:00:00,
2013-01-26 22:05:00,16.6,8.5,30.18,SE,126,0.0,0.0,70,0.00,,---,0.00,VWS V14.01,2013-01-27 04:05:00,
2013-01-26 22:10:00,16.6,8.5,30.17,SE,126,0.0,0.0,70,0.00,,---,0.00,VWS V14.01,2013-01-27 04:10:00,
2013-01-26 22:15:00,16.6,8.5,30.18,SE,126,0.0,0.0,70,0.00,,---,0.00,VWS V14.01,2013-01-27 04:15:00,
2013-01-26 22:20:00,16.6,8.9,30.17,SE,126,0.0,0.0,71,0.00,,---,0.00,VWS V14.01,2013-01-27 04:20:00,
2013-01-26 22:25:00,16.6,8.9,30.17,SE,126,0.0,1.0,71,0.00,,---,0.00,VWS V14.01,2013-01-27 04:25:00,
2013-01-26 22:30:00,16.6,8.9,30.17,SE,126,0.0,1.0,71,0.00,,---,0.00,VWS V14.01,2013-01-27 04:30:00,
2013-01-26 22:35:00,16.7,8.9,30.17,SE,126,0.0,1.0,71,0.00,,---,0.00,VWS V14.01,2013-01-27 04:35:00,
2013-01-26 22:40:00,16.8,9.0,30.17,SE,126,0.0,1.0,71,0.00,,---,0.00,VWS V14.01,2013-01-27 04:40:00,
2013-01-26 22:45:00,16.8,9.4,30.17,SE,126,0.0,1.0,72,0.00,,---,0.00,VWS V14.01,2013-01-27 04:45:00,
2013-01-26 22:50:00,16.8,9.4,30.17,SE,126,0.0,1.0,72,0.00,,---,0.00,VWS V14.01,2013-01-27 04:50:00,
2013-01-26 22:55:00,16.8,9.4,30.17,SE,126,0.0,1.0,72,0.00,,---,0.00,VWS V14.01,2013-01-27 04:55:00,
2013-01-26 23:00:00,16.8,9.4,30.17,SE,126,0.0,1.0,72,0.00,,---,0.00,VWS V14.01,2013-01-27 05:00:00,
2013-01-26 23:01:00,16.8,9.4,30.17,SE,126,0.0,1.0,72,0.00,,---,0.00,VWS V14.01,2013-01-27 05:01:00,
2013-01-26 23:02:00,16.9,9.4,30.17,SE,126,0.0,0.0,72,0.00,,---,0.00,VWS V14.01,2013-01-27 05:02:00,
2013-01-26 23:03:00,16.9,9.4,30.17,SE,126,0.0,0.0,72,0.00,,---,0.00,VWS V14.01,2013-01-27 05:03:00,
2013-01-26 23:08:00,16.9,9.4,30.17,SE,126,0.0,0.0,72,0.00,,---,0.00,VWS V14.01,2013-01-27 05:08:00,
2013-01-26 23:13:00,16.8,9.4,30.17,SE,126,0.0,0.0,72,0.00,,---,0.00,VWS V14.01,2013-01-27 05:13:00,
2013-01-26 23:18:00,16.8,9.4,30.17,SE,126,0.0,0.0,72,0.00,,---,0.00,VWS V14.01,2013-01-27 05:18:00,
2013-01-26 23:23:00,16.8,9.7,30.17,SE,126,0.0,0.0,73,0.00,,---,0.00,VWS V14.01,2013-01-27 05:23:00,
2013-01-26 23:28:00,16.8,9.7,30.17,SE,126,0.0,0.0,73,0.00,,---,0.00,VWS V14.01,2013-01-27 05:28:00,
2013-01-26 23:33:00,16.7,9.6,30.17,SE,126,0.0,0.0,73,0.00,,---,0.00,VWS V14.01,2013-01-27 05:33:00,
2013-01-26 23:38:00,16.7,9.6,30.17,SE,126,0.0,0.0,73,0.00,,---,0.00,VWS V14.01,2013-01-27 05:38:00,
2013-01-26 23:43:00,16.7,9.6,30.17,SE,126,0.0,0.0,73,0.00,,---,0.00,VWS V14.01,2013-01-27 05:43:00,
2013-01-26 23:48:00,16.6,9.8,30.17,SE,126,0.0,0.0,74,0.00,,---,0.00,VWS V14.01,2013-01-27 05:48:00,
2013-01-26 23:53:00,16.5,9.7,30.17,SE,126,0.0,0.0,74,0.00,,---,0.00,VWS V14.01,2013-01-27 05:53:00,
2013-01-26 23:58:00,16.3,9.5,30.16,SE,126,0.0,0.0,74,0.00,,---,0.00,VWS V14.01,2013-01-27 05:58:00,